Flag for Germany Weather past 2 weeks in Cologne, North Rhine-Westphalia, Germany

Now
39 °F

Clear.


Feels Like: 32 °F
Forecast: 39 / 46 °F
Wind: 12 mph from West

Location: Koeln / Bonn

Current Time: Dec 20, 2014 at 5:57:14 AM

Latest Report: Dec 20, 2014 at 5:20 AM


Visibility: 10 mi

Pressure: 30.18 "Hg

Humidity: 81%

Dew point: 34 °F

Location of CologneLocation

Historic Weather in Cologne — Graph

°F

Cologne temperature yesterday

Maximum temperature yesterday: 55 °F (at 12:20 AM)
Minimum temperature yesterday: 41 °F (at 8:20 PM)
Average temperature yesterday: 49 °F

Past Weeks' High & Low Weather Summary

 TemperatureHumidityPressure
High55 °F (Dec 18, 5:20 PM)100% (Dec 7, 12:20 AM)30.39 "Hg (Dec 7, 12:20 AM)
Low30 °F (Dec 14, 10:50 PM)66% (Dec 7, 12:20 PM)29.45 "Hg (Dec 12, 5:20 PM)
Average41 °F87%29.98 "Hg
* Reported Dec 5 4:20 AM — Dec 20 4:20 AM, Cologne, Weather by CustomWeather, © 2014

Note: Actual official high and low records may vary slightly from our data, if they occured in-between our weather recording intervals... More about our weather records

Advertising

Cologne weather history for previous 24 hours

 ConditionsComfort  
Time TempWeatherWind HumidityBarometerVisibility
4:20 AM
Dec 20
41 °FClear.13 mph81%30.18 "Hg10 mi
3:50 AM41 °FClear.13 mph81%30.18 "Hg10 mi
3:20 AM41 °FClear.13 mph81%30.18 "Hg10 mi
2:50 AM39 °FClear.12 mph87%30.18 "Hg10 mi
2:20 AM41 °FClear.12 mph81%30.18 "Hg10 mi
1:50 AM41 °FPassing clouds.9 mph81%30.15 "HgN/A
1:20 AM41 °FPassing clouds.9 mph81%30.15 "HgN/A
12:50 AM41 °FPassing clouds.8 mph81%30.15 "HgN/A
12:20 AM41 °FPassing clouds.10 mph81%30.15 "HgN/A
11:50 PM
Dec 19
41 °FPassing clouds.10 mph81%30.15 "HgN/A
11:20 PM41 °FClear.9 mph81%30.12 "Hg10 mi
10:50 PM41 °FClear.12 mph87%30.12 "Hg10 mi
10:20 PM41 °FClear.7 mph81%30.12 "Hg10 mi
9:50 PM41 °FClear.10 mph81%30.09 "Hg10 mi
9:20 PM41 °FClear.9 mph81%30.09 "Hg10 mi
8:50 PM41 °FClear.8 mph81%30.09 "Hg10 mi
8:20 PM41 °FClear.6 mph81%30.07 "Hg10 mi
7:50 PM43 °FPassing clouds.10 mph81%30.07 "HgN/A
7:20 PM43 °FPassing clouds.10 mph81%30.04 "HgN/A
6:50 PM43 °FPassing clouds.10 mph81%30.04 "HgN/A
6:20 PM45 °FPassing clouds.13 mph76%30.01 "HgN/A
5:50 PM45 °FClear.12 mph81%29.98 "Hg10 mi
5:20 PM46 °FPassing clouds.12 mph76%29.98 "HgN/A
4:50 PM46 °FPassing clouds.14 mph82%29.98 "HgN/A
4:20 PM48 °FBroken clouds.15 mph76%29.95 "HgN/A
3:50 PM48 °FPartly sunny.17 mph87%29.92 "HgN/A
3:20 PM48 °FLight rain. More clouds than sun.22 mph87%29.89 "HgN/A
2:50 PM52 °FLight rain. More clouds than sun.13 mph88%29.89 "HgN/A
2:20 PM52 °FRain. Partly sunny.17 mph94%29.86 "Hg2 mi
1:50 PM52 °FRain. Partly sunny.12 mph88%29.86 "Hg3 mi
1:20 PM52 °FLight rain. Mostly cloudy.13 mph88%29.86 "HgN/A
12:50 PM52 °FLight rain. Mostly cloudy.15 mph88%29.86 "HgN/A
12:20 PM52 °FLight rain. Partly sunny.13 mph88%29.86 "HgN/A
11:50 AM52 °FLight rain. Broken clouds.13 mph88%29.86 "HgN/A
11:20 AM52 °FLight rain. Partly sunny.14 mph88%29.89 "HgN/A
10:50 AM52 °FRain. Mostly cloudy.12 mph88%29.89 "HgN/A
10:20 AM52 °FRain. Partly sunny.13 mph88%29.89 "HgN/A
9:50 AM52 °FRain. Mostly cloudy.15 mph88%29.89 "HgN/A
9:20 AM52 °FLight rain. Broken clouds.14 mph82%29.89 "HgN/A
8:50 AM52 °FLight rain. Partly sunny.13 mph82%29.89 "HgN/A
8:20 AM52 °FLight rain. Passing clouds.16 mph82%29.89 "HgN/A
7:50 AM52 °FLight rain. Passing clouds.16 mph82%29.89 "HgN/A
7:20 AM54 °FLight rain. Partly cloudy.14 mph77%29.89 "HgN/A
6:50 AM54 °FPartly cloudy.17 mph77%29.89 "HgN/A
6:20 AM54 °FPassing clouds.12 mph77%29.92 "HgN/A
5:50 AM54 °FPassing clouds.15 mph77%29.92 "HgN/A
5:20 AM54 °FPartly cloudy.12 mph77%29.92 "HgN/A
Weather by CustomWeather, © 2014

See weather overviewHow to use our weather pages